This is the latest recevied weather packets stored in our database for station/object K3RUP-1. If no packets are shown the sender has not sent any weather packets the latest 10 day(s).
| Time | Temp. | Humidity | Pressure | Rain* | Wind** | Luminosity | Snow |
|---|---|---|---|---|---|---|---|
| 1777851428 | 14.44° C | 51% | 1013.5 hPa | 0 mm | - | 6 W/m² | - |
| 1777851123 | 15° C | 47% | 1013.3 hPa | 0 mm | - | 10 W/m² | - |
| 1777850820 | 15° C | 49% | 1013.4 hPa | 0 mm | - | 12 W/m² | - |
| 1777850517 | 15.56° C | 45% | 1013.3 hPa | 0 mm | - | 14 W/m² | - |
| 1777850216 | 15.56° C | 39% | 1013.3 hPa | 0 mm | - | 15 W/m² | - |
| 1777849911 | 15.56° C | 40% | 1013.2 hPa | 0 mm | - | 18 W/m² | - |
| 1777849608 | 15.56° C | 41% | 1013.4 hPa | 0 mm | - | 20 W/m² | - |
| 1777849306 | 16.11° C | 42% | 1013.3 hPa | 0 mm | - | 21 W/m² | - |
| 1777849003 | 16.11° C | 38% | 1013.2 hPa | 0 mm | - | 23 W/m² | - |
| 1777848703 | 16.11° C | 34% | 1013.2 hPa | 0 mm | - | 25 W/m² | - |
| 1777848400 | 16.11° C | 35% | 1013.3 hPa | 0 mm | - | 26 W/m² | - |
| 1777848098 | 16.11° C | 34% | 1013.5 hPa | 0 mm | - | 28 W/m² | - |
| 1777847796 | 16.67° C | 34% | 1013.6 hPa | 0 mm | - | 29 W/m² | - |
| 1777847492 | 16.67° C | 35% | 1013.2 hPa | 0 mm | - | 30 W/m² | - |
| 1777847189 | 16.67° C | 32% | 1013.2 hPa | 0 mm | - | 32 W/m² | - |
| 1777846887 | 16.67° C | 35% | 1013.2 hPa | 0 mm | - | 33 W/m² | - |
| 1777846585 | 16.67° C | 34% | 1013.2 hPa | 0 mm | - | 33 W/m² | - |
| 1777846282 | 16.67° C | 31% | 1013.5 hPa | 0 mm | - | 42 W/m² | - |
| 1777845979 | 16.67° C | 31% | 1013.4 hPa | 0 mm | - | 63 W/m² | - |
| 1777845676 | 17.22° C | 32% | 1013.4 hPa | 0 mm | - | 128 W/m² | - |
| 1777845373 | 17.22° C | 34% | 1013.6 hPa | 0 mm | - | 56 W/m² | - |
| 1777845069 | 17.22° C | 31% | 1013.2 hPa | 0 mm | - | 46 W/m² | - |
| 1777844768 | 17.22° C | 33% | 1013.4 hPa | 0 mm | - | 56 W/m² | - |
| 1777844463 | 17.22° C | 32% | 1013.2 hPa | 0 mm | - | 157 W/m² | - |
| 1777844163 | 16.67° C | 31% | 1013.3 hPa | 0 mm | - | 111 W/m² | - |
* Rain latest hour (hover to see other rain measurements)
** Current wind speed in m/s (hover to see current wind gust speed)